| time (UTC) | temp C | wind direction | speed KPH | gust KPH | rain 1hr cm | rain 24hr cm | rain mn cm | humidity % | barometer mb |
| 20260509211824 | 28 | 317 | 4.8 | 20.9 | 0.00 | 0.00 | 0.00 | 8 | 1017.9 |
| 20260509210903 | 28 | 2 | 9.7 | 29.0 | 0.00 | 0.00 | 0.00 | 8 | 1017.9 |
| 20260509210024 | 28 | 354 | 4.8 | 14.5 | 0.00 | 0.00 | 0.00 | 8 | 1017.9 |
| 20260509205403 | 28 | 332 | 3.2 | 16.1 | 0.00 | 0.00 | 0.00 | 8 | 1017.9 |
| 20260509204503 | 28 | 307 | 4.8 | 17.7 | 0.00 | 0.00 | 0.00 | 9 | 1017.9 |
| 20260509202703 | 27 | 333 | 6.4 | 22.5 | 0.00 | 0.00 | 0.00 | 9 | 1017.9 |
| 20260509201803 | 28 | 324 | 8.0 | 29.0 | 0.00 | 0.00 | 0.00 | 8 | 1017.9 |
| 20260509200903 | 28 | 2 | 4.8 | 17.7 | 0.00 | 0.00 | 0.00 | 10 | 1017.9 |
| 20260509200024 | 28 | 308 | 3.2 | 16.1 | 0.00 | 0.00 | 0.00 | 10 | 1017.9 |
| 20260509195403 | 27 | 298 | 6.4 | 17.7 | 0.00 | 0.00 | 0.00 | 10 | 1017.9 |
| 20260509194503 | 28 | 356 | 4.8 | 22.5 | 0.00 | 0.00 | 0.00 | 10 | 1017.9 |
| 20260509193603 | 28 | 356 | 4.8 | 19.3 | 0.00 | 0.00 | 0.00 | 9 | 1017.9 |
| 20260509192703 | 28 | 333 | 8.0 | 22.5 | 0.00 | 0.00 | 0.00 | 9 | 1017.9 |
| 20260509191803 | 28 | 346 | 6.4 | 22.5 | 0.00 | 0.00 | 0.00 | 10 | 1017.9 |
| 20260509190903 | 27 | 304 | 3.2 | 14.5 | 0.00 | 0.00 | 0.00 | 10 | 1017.9 |
| 20260509190003 | 28 | 12 | 6.4 | 17.7 | 0.00 | 0.00 | 0.00 | 10 | 1017.9 |
| 20260509185403 | 28 | 26 | 6.4 | 17.7 | 0.00 | 0.00 | 0.00 | 12 | 1017.9 |
| 20260509184503 | 27 | 25 | 4.8 | 19.3 | 0.00 | 0.00 | 0.00 | 13 | 1017.9 |
| 20260509183603 | 27 | 20 | 8.0 | 19.3 | 0.00 | 0.00 | 0.00 | 13 | 1017.9 |
| 20260509182703 | 27 | 13 | 8.0 | 17.7 | 0.00 | 0.00 | 0.00 | 15 | 1017.9 |
| 20260509181803 | 27 | 12 | 11.3 | 22.5 | 0.00 | 0.00 | 0.00 | 14 | 1017.9 |
| 20260509180903 | 26 | 9 | 11.3 | 20.9 | 0.00 | 0.00 | 0.00 | 15 | 1017.9 |
| 20260509180003 | 26 | 9 | 8.0 | 19.3 | 0.00 | 0.00 | 0.00 | 15 | 1017.9 |
| 20260509175403 | 26 | 8 | 8.0 | 20.9 | 0.00 | 0.00 | 0.00 | 15 | 1017.9 |
| 20260509174503 | 26 | 15 | 9.7 | 19.3 | 0.00 | 0.00 | 0.00 | 15 | 1017.9 |
| 20260509173603 | 25 | 28 | 9.7 | 20.9 | 0.00 | 0.00 | 0.00 | 15 | 1017.9 |
| 20260509172703 | 25 | 41 | 8.0 | 17.7 | 0.00 | 0.00 | 0.00 | 15 | 1017.9 |
| 20260509171803 | 25 | 18 | 3.2 | 14.5 | 0.00 | 0.00 | 0.00 | 15 | 1017.9 |
| 20260509170903 | 24 | 61 | 1.6 | 6.4 | 0.00 | 0.00 | 0.00 | 17 | 1017.9 |
| 20260509170003 | 23 | 67 | 4.8 | 12.9 | 0.00 | 0.00 | 0.00 | 18 | 1017.9 |
| 20260509165403 | 23 | 71 | 3.2 | 14.5 | 0.00 | 0.00 | 0.00 | 19 | 1017.9 |
| 20260509164503 | 22 | 73 | 1.6 | 8.0 | 0.00 | 0.00 | 0.00 | 20 | 1017.9 |
| 20260509163603 | 22 | 65 | 1.6 | 6.4 | 0.00 | 0.00 | 0.00 | 20 | 1017.9 |
| 20260509162703 | 22 | 61 | 1.6 | 8.0 | 0.00 | 0.00 | 0.00 | 21 | 1017.9 |
| 20260509161803 | 22 | 59 | 4.8 | 14.5 | 0.00 | 0.00 | 0.00 | 23 | 1017.9 |
| 20260509160903 | 22 | 64 | 3.2 | 14.5 | 0.00 | 0.00 | 0.00 | 23 | 1017.9 |
| 20260509160003 | 21 | 65 | 1.6 | 8.0 | 0.00 | 0.00 | 0.00 | 23 | 1017.9 |
| 20260509155403 | 20 | 65 | 0.0 | 1.6 | 0.00 | 0.00 | 0.00 | 25 | 1017.9 |
| 20260509154503 | 20 | 65 | 1.6 | 6.4 | 0.00 | 0.00 | 0.00 | 24 | 1017.9 |
| 20260509153603 | 20 | 65 | 1.6 | 8.0 | 0.00 | 0.00 | 0.00 | 26 | 1017.9 |
| 20260509152724 | 20 | 65 | 1.6 | 8.0 | 0.00 | 0.00 | 0.00 | 25 | 1017.9 |
| 20260509151803 | 20 | 65 | 1.6 | 8.0 | 0.00 | 0.00 | 0.00 | 26 | 1017.9 |
| 20260509150903 | 19 | 65 | 1.6 | 8.0 | 0.00 | 0.00 | 0.00 | 27 | 1017.9 |
| 20260509150003 | 18 | 53 | 3.2 | 9.7 | 0.00 | 0.00 | 0.00 | 28 | 1017.9 |
| 20260509145424 | 18 | 43 | 3.2 | 9.7 | 0.00 | 0.00 | 0.00 | 29 | 1017.9 |
| 20260509144503 | 17 | 27 | 0.0 | 4.8 | 0.00 | 0.00 | 0.00 | 31 | 1017.9 |
| 20260509143603 | 16 | 27 | 0.0 | 4.8 | 0.00 | 0.00 | 0.00 | 31 | 1017.9 |
| 20260509142703 | 15 | 0 | 0.0 | 0.0 | 0.00 | 0.00 | 0.00 | 35 | 1017.9 |
| 20260509141803 | 15 | 0 | 0.0 | 0.0 | 0.00 | 0.00 | 0.00 | 36 | 1017.9 |
| 20260509140903 | 15 | 0 | 0.0 | 0.0 | 0.00 | 0.00 | 0.00 | 35 | 1017.9 |
| 20260509140015 | 14 | 0 | 0.0 | 0.0 | 0.00 | 0.00 | 0.00 | 37 | 1017.9 |
| 20260509135436 | 14 | 0 | 0.0 | 0.0 | 0.00 | 0.00 | 0.00 | 36 | 1017.9 |
| 20260509134515 | 14 | 0 | 0.0 | 0.0 | 0.00 | 0.00 | 0.00 | 39 | 1017.9 |
| 20260509133615 | 15 | 0 | 0.0 | 0.0 | 0.00 | 0.00 | 0.00 | 39 | 1017.9 |
| 20260509132715 | 15 | 0 | 0.0 | 0.0 | 0.00 | 0.00 | 0.00 | 38 | 1017.9 |
| 20260509131815 | 15 | 27 | 0.0 | 4.8 | 0.00 | 0.00 | 0.00 | 39 | 1017.9 |
| 20260509130915 | 15 | 27 | 1.6 | 4.8 | 0.00 | 0.00 | 0.00 | 35 | 1017.9 |
| 20260509130003 | 13 | 0 | 0.0 | 0.0 | 0.00 | 0.00 | 0.00 | 34 | 1017.9 |
| 20260509125415 | 13 | 0 | 0.0 | 1.6 | 0.00 | 0.00 | 0.00 | 35 | 1017.9 |
| 20260509124536 | 13 | 0 | 0.0 | 1.6 | 0.00 | 0.00 | 0.00 | 36 | 1017.9 |
| 20260509123615 | 12 | 0 | 0.0 | 0.0 | 0.00 | 0.00 | 0.00 | 37 | 1017.9 |
| 20260509122703 | 12 | 0 | 0.0 | 0.0 | 0.00 | 0.00 | 0.00 | 37 | 1017.9 |
| 20260509121836 | 12 | 27 | 0.0 | 6.4 | 0.00 | 0.00 | 0.00 | 36 | 1017.9 |
| 20260509120915 | 12 | 27 | 0.0 | 6.4 | 0.00 | 0.00 | 0.00 | 37 | 1017.9 |
| 20260509120003 | 12 | 27 | 0.0 | 4.8 | 0.00 | 0.00 | 0.00 | 38 | 1017.9 |
| 20260509115415 | 12 | 21 | 0.0 | 9.7 | 0.00 | 0.00 | 0.00 | 38 | 1017.9 |
| 20260509114515 | 12 | 21 | 3.2 | 12.9 | 0.00 | 0.00 | 0.00 | 38 | 1017.9 |
| 20260509113615 | 13 | 25 | 0.0 | 8.0 | 0.00 | 0.00 | 0.00 | 32 | 1017.9 |
| 20260509112715 | 14 | 0 | 0.0 | 0.0 | 0.00 | 0.00 | 0.00 | 30 | 1017.9 |
| 20260509111815 | 15 | 244 | 0.0 | 3.2 | 0.00 | 0.00 | 0.00 | 29 | 1017.9 |
| 20260509110903 | 15 | 244 | 1.6 | 11.3 | 0.00 | 0.00 | 0.00 | 29 | 1017.9 |
| 20260509110015 | 14 | 245 | 3.2 | 8.0 | 0.00 | 0.00 | 0.00 | 30 | 1017.9 |
| 20260509105436 | 13 | 246 | 3.2 | 8.0 | 0.00 | 0.00 | 0.00 | 31 | 1017.9 |
| 20260509104515 | 13 | 0 | 0.0 | 0.0 | 0.00 | 0.00 | 0.00 | 34 | 1017.9 |
| 20260509103615 | 13 | 0 | 0.0 | 0.0 | 0.00 | 0.00 | 0.00 | 33 | 1017.9 |
| 20260509102736 | 14 | 0 | 0.0 | 0.0 | 0.00 | 0.00 | 0.00 | 31 | 1017.9 |
| 20260509101815 | 15 | 0 | 0.0 | 0.0 | 0.00 | 0.00 | 0.00 | 29 | 1017.9 |
| 20260509100915 | 16 | 0 | 0.0 | 0.0 | 0.00 | 0.00 | 0.00 | 28 | 1017.9 |
| 20260509100015 | 17 | 0 | 0.0 | 0.0 | 0.00 | 0.00 | 0.00 | 26 | 1017.9 |
| 20260509095436 | 17 | 246 | 0.0 | 6.4 | 0.00 | 0.00 | 0.00 | 25 | 1017.9 |
| 20260509094515 | 18 | 246 | 1.6 | 8.0 | 0.00 | 0.00 | 0.00 | 21 | 1017.9 |
| 20260509093603 | 18 | 246 | 1.6 | 8.0 | 0.00 | 0.00 | 0.00 | 21 | 1017.9 |
| 20260509092715 | 18 | 246 | 4.8 | 11.3 | 0.00 | 0.00 | 0.00 | 21 | 1017.9 |
| 20260509091815 | 17 | 247 | 3.2 | 11.3 | 0.00 | 0.00 | 0.00 | 22 | 1017.9 |
| 20260509090915 | 16 | 250 | 0.0 | 6.4 | 0.00 | 0.00 | 0.00 | 24 | 1017.9 |
| 20260509090015 | 17 | 0 | 0.0 | 0.0 | 0.00 | 0.00 | 0.00 | 26 | 1017.9 |
| 20260509085403 | 17 | 250 | 0.0 | 1.6 | 0.00 | 0.00 | 0.00 | 25 | 1017.9 |
| 20260509084515 | 18 | 250 | 0.0 | 6.4 | 0.00 | 0.00 | 0.00 | 22 | 1017.9 |
| 20260509083615 | 19 | 250 | 3.2 | 8.0 | 0.00 | 0.00 | 0.00 | 20 | 1017.9 |
| 20260509082715 | 19 | 250 | 1.6 | 8.0 | 0.00 | 0.00 | 0.00 | 20 | 1017.9 |
| 20260509081815 | 20 | 250 | 1.6 | 6.4 | 0.00 | 0.00 | 0.00 | 19 | 1017.9 |
| 20260509080915 | 20 | 250 | 1.6 | 11.3 | 0.00 | 0.00 | 0.00 | 19 | 1017.9 |
| 20260509080004 | 20 | 251 | 1.6 | 12.9 | 0.00 | 0.00 | 0.00 | 19 | 1017.9 |
| 20260509075415 | 20 | 252 | 1.6 | 12.9 | 0.00 | 0.00 | 0.00 | 19 | 1017.9 |
| 20260509074515 | 20 | 256 | 1.6 | 6.4 | 0.00 | 0.00 | 0.00 | 19 | 1017.9 |
| 20260509073603 | 20 | 257 | 1.6 | 12.9 | 0.00 | 0.00 | 0.00 | 19 | 1017.9 |
| 20260509072715 | 20 | 245 | 1.6 | 12.9 | 0.00 | 0.00 | 0.00 | 19 | 1017.9 |
| 20260509071803 | 20 | 253 | 1.6 | 12.9 | 0.00 | 0.00 | 0.00 | 19 | 1017.9 |
| 20260509070903 | 20 | 248 | 1.6 | 11.3 | 0.00 | 0.00 | 0.00 | 19 | 1017.9 |
| 20260509070015 | 20 | 239 | 3.2 | 11.3 | 0.00 | 0.00 | 0.00 | 20 | 1017.9 |
| 20260509065403 | 20 | 237 | 1.6 | 6.4 | 0.00 | 0.00 | 0.00 | 20 | 1017.9 |
| 20260509064536 | 20 | 231 | 1.6 | 9.7 | 0.00 | 0.00 | 0.00 | 20 | 1017.9 |
| 20260509063603 | 21 | 288 | 1.6 | 6.4 | 0.00 | 0.00 | 0.00 | 19 | 1017.9 |
| 20260509062703 | 21 | 281 | 1.6 | 12.9 | 0.00 | 0.00 | 0.00 | 18 | 1017.9 |
| 20260509061815 | 21 | 300 | 1.6 | 9.7 | 0.00 | 0.00 | 0.00 | 18 | 1017.9 |
| 20260509060903 | 21 | 303 | 3.2 | 12.9 | 0.00 | 0.00 | 0.00 | 18 | 1017.9 |
| 20260509060015 | 21 | 301 | 1.6 | 11.3 | 0.00 | 0.00 | 0.00 | 18 | 1017.9 |
| 20260509055403 | 21 | 290 | 3.2 | 20.9 | 0.00 | 0.00 | 0.00 | 18 | 1017.9 |
| 20260509054515 | 21 | 314 | 1.6 | 9.7 | 0.00 | 0.00 | 0.00 | 19 | 1017.9 |
| 20260509053615 | 21 | 300 | 1.6 | 8.0 | 0.00 | 0.00 | 0.00 | 19 | 1017.9 |
| 20260509052715 | 21 | 294 | 1.6 | 6.4 | 0.00 | 0.00 | 0.00 | 19 | 1017.9 |
| 20260509051815 | 21 | 325 | 1.6 | 11.3 | 0.00 | 0.00 | 0.00 | 19 | 1017.9 |
| 20260509050915 | 22 | 329 | 3.2 | 12.9 | 0.00 | 0.00 | 0.00 | 18 | 1017.9 |
| 20260509050003 | 22 | 320 | 1.6 | 12.9 | 0.00 | 0.00 | 0.00 | 17 | 1017.9 |
| 20260509045403 | 22 | 310 | 1.6 | 12.9 | 0.00 | 0.00 | 0.00 | 17 | 1017.9 |
| 20260509044515 | 22 | 305 | 1.6 | 14.5 | 0.00 | 0.00 | 0.00 | 17 | 1017.9 |
| 20260509043615 | 23 | 263 | 1.6 | 9.7 | 0.00 | 0.00 | 0.00 | 17 | 1017.9 |
| 20260509042715 | 23 | 296 | 3.2 | 16.1 | 0.00 | 0.00 | 0.00 | 17 | 1017.9 |
| 20260509041815 | 22 | 296 | 3.2 | 16.1 | 0.00 | 0.00 | 0.00 | 17 | 1017.9 |
| 20260509040903 | 23 | 353 | 1.6 | 12.9 | 0.00 | 0.00 | 0.00 | 18 | 1017.9 |
| 20260509040036 | 23 | 262 | 3.2 | 17.7 | 0.00 | 0.00 | 0.00 | 15 | 1017.9 |
| 20260509035415 | 23 | 247 | 4.8 | 17.7 | 0.00 | 0.00 | 0.00 | 14 | 1017.9 |
| 20260509034515 | 24 | 268 | 1.6 | 16.1 | 0.00 | 0.00 | 0.00 | 14 | 1017.9 |
| 20260509033603 | 24 | 247 | 1.6 | 24.1 | 0.00 | 0.00 | 0.00 | 14 | 1017.9 |
| 20260509032715 | 24 | 240 | 3.2 | 24.1 | 0.00 | 0.00 | 0.00 | 14 | 1017.9 |
| 20260509031815 | 24 | 241 | 1.6 | 9.7 | 0.00 | 0.00 | 0.00 | 14 | 1017.9 |
| 20260509030903 | 24 | 232 | 1.6 | 12.9 | 0.00 | 0.00 | 0.00 | 14 | 1017.9 |
| 20260509030015 | 25 | 231 | 4.8 | 25.7 | 0.00 | 0.00 | 0.00 | 14 | 1017.9 |
| 20260509025403 | 24 | 224 | 1.6 | 14.5 | 0.00 | 0.00 | 0.00 | 14 | 1017.9 |
| 20260509024516 | 24 | 216 | 1.6 | 9.7 | 0.00 | 0.00 | 0.00 | 14 | 1017.9 |
| 20260509023636 | 25 | 222 | 1.6 | 9.7 | 0.00 | 0.00 | 0.00 | 14 | 1017.9 |
| 20260509022715 | 25 | 218 | 3.2 | 16.1 | 0.00 | 0.00 | 0.00 | 14 | 1017.9 |
| 20260509021803 | 25 | 222 | 4.8 | 17.7 | 0.00 | 0.00 | 0.00 | 14 | 1017.9 |
| 20260509020915 | 25 | 228 | 3.2 | 16.1 | 0.00 | 0.00 | 0.00 | 13 | 1017.9 |
| 20260509020015 | 25 | 238 | 1.6 | 12.9 | 0.00 | 0.00 | 0.00 | 13 | 1017.9 |
| 20260509015415 | 25 | 0 | 0.0 | 0.0 | 0.00 | 0.00 | 0.00 | 14 | 1017.9 |
| 20260509014515 | 25 | 225 | 1.6 | 8.0 | 0.00 | 0.00 | 0.00 | 13 | 1017.9 |
| 20260509013615 | 26 | 197 | 1.6 | 11.3 | 0.00 | 0.00 | 0.00 | 13 | 1017.9 |
| 20260509012703 | 26 | 0 | 0.0 | 0.0 | 0.00 | 0.00 | 0.00 | 13 | 1017.9 |
| 20260509011815 | 26 | 0 | 0.0 | 1.6 | 0.00 | 0.00 | 0.00 | 13 | 1017.9 |
| 20260509010903 | 26 | 0 | 0.0 | 0.0 | 0.00 | 0.00 | 0.00 | 12 | 1017.9 |
| 20260509010024 | 26 | 296 | 1.6 | 14.5 | 0.00 | 0.00 | 0.00 | 12 | 1017.9 |
| 20260509005403 | 26 | 294 | 1.6 | 14.5 | 0.00 | 0.00 | 0.00 | 12 | 1017.9 |
| 20260509004503 | 27 | 266 | 1.6 | 11.3 | 0.00 | 0.00 | 0.00 | 13 | 1017.9 |
| 20260509003615 | 27 | 227 | 3.2 | 17.7 | 0.00 | 0.00 | 0.00 | 13 | 1017.9 |
| 20260509002715 | 27 | 227 | 0.0 | 12.9 | 0.00 | 0.00 | 0.00 | 12 | 1017.9 |
| 20260509001815 | 27 | 224 | 4.8 | 35.4 | 0.00 | 0.00 | 0.00 | 13 | 1017.9 |
| 20260509000936 | 27 | 247 | 3.2 | 19.3 | 0.00 | 0.00 | 0.00 | 12 | 1017.9 |
| 20260509000015 | 28 | 359 | 1.6 | 12.9 | 0.00 | 0.00 | 0.00 | 11 | 1017.9 |
| 20260508235415 | 28 | 47 | 0.0 | 6.4 | 0.00 | 0.00 | 0.00 | 12 | 1017.9 |
| 20260508234515 | 28 | 35 | 1.6 | 8.0 | 0.00 | 0.00 | 0.00 | 12 | 1017.9 |
| 20260508233615 | 28 | 15 | 4.8 | 17.7 | 0.00 | 0.00 | 0.00 | 11 | 1017.9 |
| 20260508232715 | 28 | 11 | 1.6 | 14.5 | 0.00 | 0.00 | 0.00 | 12 | 1017.9 |
| 20260508231836 | 29 | 14 | 3.2 | 14.5 | 0.00 | 0.00 | 0.00 | 11 | 1017.9 |
| 20260508230915 | 29 | 16 | 4.8 | 16.1 | 0.00 | 0.00 | 0.00 | 11 | 1017.9 |
| 20260508230015 | 29 | 326 | 1.6 | 9.7 | 0.00 | 0.00 | 0.00 | 11 | 1017.9 |
| 20260508225415 | 29 | 8 | 1.6 | 9.7 | 0.00 | 0.00 | 0.00 | 10 | 1017.9 |
| 20260508224536 | 29 | 348 | 1.6 | 9.7 | 0.00 | 0.00 | 0.00 | 11 | 1017.9 |
| 20260508223615 | 28 | 354 | 1.6 | 12.9 | 0.00 | 0.00 | 0.00 | 11 | 1017.9 |
| 20260508222703 | 28 | 305 | 3.2 | 17.7 | 0.00 | 0.00 | 0.00 | 11 | 1017.9 |
| 20260508221815 | 28 | 271 | 1.6 | 12.9 | 0.00 | 0.00 | 0.00 | 11 | 1017.9 |
| 20260508220915 | 28 | 326 | 3.2 | 19.3 | 0.00 | 0.00 | 0.00 | 11 | 1017.9 |
| 20260508220015 | 28 | 346 | 8.0 | 22.5 | 0.00 | 0.00 | 0.00 | 11 | 1017.9 |
| 20260508215424 | 27 | 357 | 9.7 | 22.5 | 0.00 | 0.00 | 0.00 | 12 | 1017.9 |
| 20260508214515 | 26 | 354 | 4.8 | 20.9 | 0.00 | 0.00 | 0.00 | 13 | 1017.9 |
| 20260508213615 | 26 | 346 | 1.6 | 11.3 | 0.00 | 0.00 | 0.00 | 13 | 1017.9 |
| 20260508212715 | 25 | 279 | 1.6 | 16.1 | 0.00 | 0.00 | 0.00 | 13 | 1017.9 |